Regional Weather Roundup
Issued by NWS Green Bay, WI

Home | Current Version | Previous Version | Text Only | Print | Product List | Glossary On
Versions: 1 2 3 4 5 6 7 8 9 10 11 12 13 14 15 16 17 18 19 20 21 22 23 24 25 26 27 28 29 30 31 32 33 34 35 36 37 38 39 40 41 42 43 44 45 46 47 48 49 50
000
ASUS43 KGRB 260100
RWRGRB

NORTH-CENTRAL AND NORTHEAST WISCONSIN REGIONAL WEATHER ROUNDUP
NATIONAL WEATHER SERVICE GREEN BAY WI
800 PM CDT SUN SEP 25 2016

WIZ005-009-010>012-018-019-260200-
NORTH CENTRAL WISCONSIN

CITY           SKY/WX    TMP DP  RH WIND       PRES   REMARKS
IRONWOOD       CLOUDY    60  51  72 SW8       29.82S
MANITOWISH WTR NOT AVBL
ARBOR VITAE    NOT AVBL
EAGLE RIVER    NOT AVBL
LAND O LAKES   NOT AVBL
RHINELANDER    CLOUDY    61  55  81 W10       29.86S
PHILLIPS       NOT AVBL
ANTIGO         NOT AVBL
TOMAHAWK       NOT AVBL
MERRILL        NOT AVBL
$$

WIZ013-073-260200-
NORTHEAST WISCONSIN

CITY           SKY/WX    TMP DP  RH WIND       PRES   REMARKS
IRON MOUNTAIN  CLOUDY    65  62  90 S5        29.81S
MARINETTE        N/A    N/A N/A N/A MISG        N/A
$$

WIZ017-030-035>037-045-260200-
CENTRAL WISCONSIN

CITY           SKY/WX    TMP DP  RH WIND       PRES   REMARKS
MEDFORD        NOT AVBL
WAUSAU         CLOUDY    62  53  72 W16       29.87R
MOSINEE        NOT AVBL
MARSHFIELD     CLOUDY    62  53  72 W8        29.90R
WISC RAPIDS    PTCLDY    63  55  75 W7        29.92R
STEVENS POINT  NOT AVBL
WAUPACA        NOT AVBL
SHAWANO        NOT AVBL
CLINTONVILLE   NOT AVBL
WAUTOMA        CLOUDY    66  56  70 W13       29.91R
$$

WIZ038-039-048-051-260200-
FOX VALLEY

CITY           SKY/WX    TMP DP  RH WIND       PRES   REMARKS
NWS GREEN BAY  CLOUDY    67  67 100 S7        29.84S FOG
APPLETON       DRIZZLE   68  68 100 SW8       29.84R FOG
OSHKOSH        LGT RAIN  71  65  81 W8        29.87R
FOND DU LAC    LGT RAIN  71  68  90 W7        29.88R
$$

WIZ022-050-052-260200-
EAST CENTRAL WISCONSIN

CITY           SKY/WX    TMP DP  RH WIND       PRES   REMARKS
EPHRAIM        NOT AVBL
WASHINGTON ISL NOT AVBL
STURGEON BAY   LGT RAIN  66  65  96 S12       29.84F
MANITOWOC      NOT AVBL
SHEBOYGAN      CLOUDY    68  66  93 SW6       29.87S FOG
$$

LMZ563-521-522-541>543-260200-
LAKESHORE

STATION/POSITION TIME  TEMP    WIND        PRES    VSBY  WAVE
                       AIR SEA DIR/SP/G                  HT/PER
                 (UTC) (F)     (DEG/KT/KT) (MB)    (MI)  (FT/S)
SHEBOYGAN LKSHOR 0000   68     190/ 18/ 21 1010.9R
KEWAUNEE LKSHORE 0000   67     190/ 15/ 19 1010.7R
NORTHPORT PIER   0000   66     160/  9/ 16 1010.5F
N MID LAKE BUOY  2350   68 68  160/ 17/ 21 1009.7F         3/ 5
CHAMBERS ISLAND  0000   66     160/  5/ 13 1010.2F
MENOMINEE LKSHOR 0000   66     170/ 10/ 14 1009.4F
$$




USA.gov is the U.S. government's official web portal to all federal, state and local government web resources and services.